Temp
69 70 66 67 57 51 44 48 51 54 53 58 60 59 58 56 57 51 64 67 68 68 70 72 74 75 75 75 75 75 75 76 76 76 75 76 76 76 76 76 76 76 76 76 75 74 73 72 72
68 72 68 58 50 43 46 50 53 54 57 59 60 59 58 55 60 60 62 68 69 69 70 71 72 74 75 74 74 75 75 76 76 76 75 76 75 76 75 76 76 76 75 74 74 73 72 72 72
72 69 62 52 45 44 46 51 53 57 59 59 57 60 57 58 61 61 66 68 69 69 70 70 72 74 74 74 74 74 75 75 76 76 76 76 76 76 76 75 76 75 76 75 73 73 72 71 71
67 66 60 51 45 48 50 52 54 58 60 61 58 56 58 62 62 65 67 68 67 68 69 70 73 74 74 74 74 74 75 75 75 76 76 77 76 75 75 75 74 75 75 74 73 72 71 71 71
63 58 50 47 46 51 53 55 56 55 55 58 59 57 56 63 66 66 66 68 66 67 68 69 72 73 73 74 74 74 74 75 75 75 75 75 75 74 75 74 74 75 74 73 72 71 70 70 70
58 55 46 42 45 53 55 55 55 55 56 57 57 55 57 63 63 64 66 66 67 67 68 69 68 70 71 72 73 73 74 74 74 74 74 75 75 74 74 74 74 74 73 72 71 70 70 69 69
52 48 43 43 45 49 54 57 54 54 56 56 59 53 58 60 63 64 65 65 66 67 67 67 68 68 67 69 70 71 72 73 73 73 73 73 72 74 73 73 73 74 73 72 71 70 69 69 69
53 50 42 41 45 47 56 57 55 56 54 62 60 54 55 59 64 64 64 64 64 65 66 66 66 67 67 67 66 67 69 70 70 70 69 68 68 69 69 69 71 74 73 72 71 69 69 69 68
55 46 41 44 46 49 56 55 57 57 56 58 58 56 59 62 62 61 60 62 63 65 65 65 65 65 66 66 65 64 65 66 67 66 65 64 63 63 63 64 67 72 72 71 70 69 68 67 65
51 43 46 51 49 48 53 54 55 56 55 55 55 57 60 59 58 60 59 61 63 64 64 64 64 65 65 68 66 64 65 64 64 64 63 62 61 61 63 61 63 66 68 71 70 68 67 64 58
48 46 50 52 54 55 55 55 54 51 51 55 55 58 57 56 60 60 60 61 62 63 63 64 64 64 64 65 65 66 64 63 63 63 62 61 61 59 59 58 59 59 60 62 66 62 60 58 57
46 52 52 55 56 55 53 55 54 54 58 61 58 58 57 59 59 60 60 61 60 61 64 64 65 64 64 65 64 67 66 64 62 62 62 60 58 58 57 57 57 57 58 58 59 58 58 57 57
47 50 54 55 55 54 55 53 54 53 60 61 60 59 58 58 59 60 61 61 61 61 62 64 64 64 65 63 64 64 66 66 66 62 62 60 58 57 57 57 56 56 57 57 57 57 56 56 56
50 51 52 53 53 53 52 50 51 52 56 58 58 58 57 57 58 58 58 61 61 62 62 63 64 65 65 64 63 64 64 66 66 65 63 62 60 58 57 57 57 56 57 57 57 57 56 56 55
50 46 49 51 51 51 52 47 49 56 54 55 56 56 57 58 57 57 60 60 62 64 64 62 63 64 64 64 64 64 64 65 65 65 64 63 62 59 59 58 57 58 57 57 56 56 55 54 56
44 42 37 47 50 52 51 42 53 56 52 54 55 54 54 57 59 58 59 60 61 61 62 64 66 64 64 65 65 65 64 65 65 65 65 63 63 62 60 59 59 59 58 58 56 56 56 55 55
40 33 35 43 49 49 47 40 51 53 51 52 52 53 54 55 58 59 61 60 61 60 61 62 63 64 64 64 65 64 64 64 65 65 65 64 64 63 62 61 61 59 58 57 57 56 56 55 54
41 39 37 38 46 44 44 44 48 51 50 49 50 52 52 54 57 61 62 61 61 60 60 61 62 64 63 62 62 61 61 64 64 64 65 65 65 64 62 63 62 59 59 58 57 57 55 57 57
45 39 37 40 48 42 41 42 47 50 47 48 49 50 52 54 60 60 61 58 58 59 58 59 60 62 61 59 58 59 60 60 60 63 64 64 65 64 63 63 62 60 59 60 59 59 58 55 54
43 42 42 46 48 43 41 43 48 47 51 52 54 56 57 56 57 62 58 56 55 55 55 57 60 61 61 61 61 61 60 61 62 64 64 64 63 64 64 63 63 61 60 60 59 57 55 57 55
42 42 41 39 41 41 38 40 44 45 47 49 51 52 53 54 57 59 53 51 51 50 50 55 57 59 61 61 61 60 60 60 60 60 63 63 64 64 63 63 63 63 61 61 60 58 58 57 54
37 43 42 38 36 32 37 28 39 43 46 48 50 49 53 54 51 51 49 48 47 48 51 53 54 55 57 59 59 59 59 58 60 61 62 63 63 64 63 63 63 63 63 61 61 61 59 58 57
42 45 40 39 35 31 34 32 34 40 41 46 47 48 49 47 46 46 46 47 47 48 48 50 51 52 52 53 54 58 59 61 63 63 63 64 63 63 64 63 62 62 62 62 62 61 59 59 58
45 43 40 36 35 30 33 31 37 36 41 43 48 46 44 44 44 45 46 47 46 46 47 48 48 48 49 49 50 49 49 51 52 54 55 59 62 62 63 63 63 63 62 62 62 62 61 60 60
42 38 30 28 29 26 34 30 40 45 49 45 45 42 41 41 41 42 42 42 43 43 43 47 45 44 45 46 46 47 48 48 49 50 51 52 55 58 60 62 62 63 63 62 63 61 61 61 60
40 38 31 22 22 25 31 27 35 43 46 44 43 41 41 39 40 39 40 40 40 41 41 41 42 41 42 42 43 45 46 47 48 49 50 52 53 55 58 58 60 62 63 63 63 62 62 62 61
35 34 40 30 22 23 28 33 42 44 42 40 39 40 37 37 37 37 38 38 38 39 39 39 39 39 40 40 41 42 43 43 44 45 47 47 49 52 53 54 56 58 60 63 63 62 61 61 61
41 42 31 32 21 18 24 27 32 39 39 36 36 35 35 35 35 36 36 36 37 38 38 38 38 37 38 38 39 40 41 42 42 42 41 42 44 46 46 48 50 53 57 59 61 62 63 61 61
38 36 38 35 32 24 20 26 37 39 41 35 35 36 34 34 34 34 35 37 37 36 36 36 35 35 35 35 37 38 39 39 40 39 39 40 41 42 42 43 46 49 52 56 58 60 61 61 61
41 38 37 30 28 30 25 31 40 41 39 39 36 36 35 35 35 35 35 33 32 32 33 33 33 32 32 33 34 36 37 37 36 37 36 38 38 40 41 43 43 44 46 49 52 54 58 59 59
MSLP
1013.38 1012.59 1012.70 1013.24 1015.32 1016.78 1017.51 1017.43 1017.00 1016.70 1016.43 1016.17 1016.23 1016.44 1016.90 1017.20 1017.58 1018.16 1017.52 1017.47 1017.40 1017.56 1017.73 1017.79 1018.03 1018.17 1018.43 1018.47 1018.66 1018.86 1019.13 1019.28 1019.30 1019.31 1019.39 1019.61 1019.70 1019.80 1019.97 1020.02 1020.04 1020.19 1020.40 1020.57 1020.76 1020.82 1020.95 1021.12 1021.10
1013.31 1012.74 1013.24 1014.87 1016.72 1017.95 1018.08 1017.33 1016.95 1016.68 1016.45 1016.31 1016.37 1016.64 1017.00 1017.37 1017.49 1017.57 1017.56 1017.56 1017.53 1017.73 1018.08 1018.12 1018.16 1018.38 1018.56 1018.66 1018.72 1018.92 1019.15 1019.32 1019.45 1019.51 1019.45 1019.51 1019.85 1019.99 1020.16 1020.24 1020.39 1020.53 1020.75 1020.95 1021.05 1021.14 1021.35 1021.37 1021.25
1013.40 1013.58 1014.92 1016.35 1018.07 1018.44 1017.98 1017.32 1016.92 1016.62 1016.56 1016.51 1016.59 1016.82 1017.27 1017.41 1017.40 1017.48 1017.28 1017.51 1017.68 1017.93 1018.23 1018.46 1018.55 1018.57 1018.70 1018.89 1018.93 1018.96 1019.21 1019.43 1019.55 1019.69 1019.70 1019.58 1019.80 1020.07 1020.32 1020.50 1020.56 1020.80 1020.84 1021.09 1021.29 1021.42 1021.60 1021.56 1021.47
1014.37 1014.64 1016.44 1017.32 1018.53 1018.42 1018.05 1017.48 1017.06 1016.84 1016.59 1016.66 1016.69 1017.18 1017.51 1017.39 1017.44 1017.44 1017.46 1017.47 1017.78 1018.06 1018.25 1018.56 1018.64 1018.85 1018.95 1019.00 1019.05 1019.11 1019.31 1019.43 1019.61 1019.83 1019.80 1019.80 1019.88 1019.97 1020.22 1020.61 1020.75 1020.86 1021.04 1021.25 1021.50 1021.68 1021.72 1021.72 1021.72
1015.52 1016.54 1017.78 1018.54 1018.77 1018.38 1017.88 1017.51 1017.20 1017.11 1017.04 1017.00 1016.94 1017.23 1017.48 1017.47 1017.37 1017.49 1017.63 1017.67 1017.95 1018.19 1018.21 1018.40 1018.74 1019.06 1019.14 1019.14 1019.23 1019.29 1019.27 1019.46 1019.73 1019.78 1020.06 1019.91 1020.09 1020.22 1020.23 1020.50 1020.81 1020.94 1021.25 1021.59 1021.74 1021.80 1021.86 1021.91 1021.90
1017.13 1018.08 1019.03 1019.38 1019.02 1018.49 1017.97 1017.71 1017.38 1017.31 1017.30 1017.24 1017.29 1017.50 1017.61 1017.56 1017.64 1017.79 1017.83 1017.94 1017.99 1018.20 1018.34 1018.51 1018.51 1018.79 1019.35 1019.44 1019.39 1019.42 1019.53 1019.51 1019.60 1019.92 1020.07 1020.11 1020.15 1020.37 1020.49 1020.62 1020.76 1020.99 1021.31 1021.63 1021.78 1021.92 1022.07 1022.10 1022.10
1018.26 1019.31 1019.94 1019.69 1019.34 1018.67 1018.20 1017.71 1017.67 1017.55 1017.49 1017.49 1017.47 1017.75 1017.76 1017.66 1017.75 1017.89 1018.08 1018.13 1018.18 1018.33 1018.44 1018.50 1018.73 1018.86 1018.81 1019.47 1019.71 1019.60 1019.57 1019.70 1019.73 1019.79 1020.05 1020.27 1020.45 1020.39 1020.54 1020.72 1021.01 1021.24 1021.44 1021.65 1021.85 1022.01 1022.07 1022.13 1022.15
1018.95 1019.85 1020.35 1019.99 1019.53 1018.86 1018.42 1017.99 1017.89 1017.91 1017.81 1017.54 1017.60 1017.94 1018.05 1017.96 1017.94 1018.16 1018.40 1018.45 1018.52 1018.48 1018.54 1018.65 1018.73 1018.81 1019.08 1019.04 1019.46 1019.92 1019.88 1019.78 1019.86 1019.94 1020.00 1020.19 1020.50 1020.68 1020.75 1020.80 1020.84 1021.09 1021.45 1021.63 1021.84 1022.04 1022.13 1022.17 1022.19
1019.13 1020.20 1020.55 1019.88 1019.51 1018.89 1018.50 1018.31 1018.13 1018.02 1017.99 1017.75 1018.02 1018.22 1018.37 1018.21 1018.33 1018.54 1018.72 1018.79 1018.77 1018.79 1018.76 1018.75 1018.90 1019.06 1019.15 1019.15 1019.18 1019.39 1020.01 1020.13 1020.04 1020.08 1020.09 1020.15 1020.38 1020.74 1020.79 1021.04 1020.98 1020.86 1021.09 1021.37 1021.53 1021.82 1021.99 1022.11 1022.20
1019.62 1020.53 1020.22 1019.57 1019.15 1018.91 1018.79 1018.71 1018.50 1018.30 1018.33 1018.08 1018.14 1018.32 1018.35 1018.40 1018.69 1018.78 1018.85 1018.77 1018.80 1018.69 1018.68 1018.69 1018.78 1018.88 1019.11 1019.17 1019.23 1019.37 1019.34 1020.04 1020.31 1020.30 1020.32 1020.41 1020.49 1020.49 1020.73 1020.82 1020.96 1021.08 1021.12 1021.20 1021.40 1021.58 1021.78 1021.95 1022.18
1019.95 1020.09 1019.80 1019.42 1019.09 1018.86 1018.83 1018.89 1018.68 1018.60 1018.51 1018.25 1018.41 1018.45 1018.51 1018.67 1018.77 1018.90 1018.84 1018.54 1018.42 1018.39 1018.53 1018.53 1018.53 1018.56 1018.73 1019.00 1019.12 1019.20 1019.29 1019.39 1019.99 1020.34 1020.45 1020.51 1020.63 1020.77 1020.72 1020.94 1021.00 1021.05 1021.14 1021.27 1021.40 1021.62 1021.77 1021.88 1022.00
1020.30 1019.90 1019.85 1019.58 1019.37 1019.21 1019.17 1019.10 1018.98 1018.84 1018.64 1018.20 1018.43 1018.59 1018.59 1018.73 1018.71 1018.53 1018.52 1018.33 1018.40 1018.23 1018.05 1018.10 1018.16 1018.38 1018.51 1018.53 1018.81 1018.98 1019.16 1019.28 1019.48 1019.90 1020.32 1020.60 1020.75 1020.89 1020.96 1021.02 1021.03 1021.27 1021.27 1021.34 1021.36 1021.58 1021.67 1021.80 1021.84
1020.44 1020.26 1020.03 1019.90 1019.69 1019.60 1019.48 1019.48 1019.37 1018.72 1018.46 1018.29 1018.43 1018.47 1018.59 1018.61 1018.52 1018.25 1018.07 1017.99 1018.03 1017.92 1017.70 1017.65 1017.63 1017.90 1018.13 1018.44 1018.62 1018.76 1018.77 1018.93 1019.01 1019.33 1019.74 1020.26 1020.57 1020.74 1020.86 1020.96 1021.11 1021.17 1021.27 1021.36 1021.38 1021.47 1021.53 1021.55 1021.55
1020.53 1020.45 1020.39 1020.09 1019.84 1019.80 1019.74 1019.61 1019.52 1018.62 1018.46 1018.59 1018.71 1018.49 1018.51 1018.53 1018.21 1017.88 1017.79 1017.52 1017.47 1017.24 1017.08 1017.14 1017.34 1017.49 1017.78 1017.95 1018.13 1018.31 1018.44 1018.46 1018.66 1018.74 1018.86 1019.24 1019.91 1020.41 1020.66 1020.76 1020.87 1020.91 1020.97 1021.06 1021.24 1021.34 1021.39 1021.37 1021.39
1020.63 1020.92 1020.84 1020.38 1020.05 1019.85 1019.80 1019.95 1019.47 1018.73 1018.93 1018.97 1018.88 1018.71 1018.44 1018.01 1017.75 1017.46 1017.12 1017.04 1016.67 1016.36 1016.57 1016.72 1016.84 1016.91 1017.20 1017.35 1017.60 1017.82 1018.01 1018.32 1018.21 1018.29 1018.59 1018.70 1018.86 1019.47 1020.01 1020.40 1020.52 1020.48 1020.50 1020.66 1020.91 1021.10 1021.26 1021.31 1021.16
1021.26 1021.61 1021.62 1020.81 1020.38 1019.81 1020.00 1019.66 1019.39 1018.96 1019.29 1019.25 1018.93 1018.66 1018.49 1017.85 1017.40 1017.02 1016.55 1016.37 1016.36 1016.45 1016.42 1016.29 1016.20 1016.13 1016.33 1016.59 1016.75 1017.05 1017.28 1017.42 1017.86 1018.12 1017.97 1018.41 1018.48 1018.55 1019.04 1019.63 1019.84 1019.93 1020.18 1020.29 1020.47 1020.61 1020.91 1020.98 1020.94
1021.81 1021.90 1021.98 1021.37 1020.61 1020.47 1020.37 1020.11 1019.47 1019.19 1019.60 1019.68 1019.17 1018.70 1018.26 1017.76 1017.04 1016.43 1015.96 1015.86 1015.75 1015.75 1015.67 1015.60 1015.69 1015.76 1015.75 1015.94 1016.17 1016.47 1016.67 1016.93 1017.06 1017.16 1017.61 1017.73 1018.01 1018.22 1018.55 1018.65 1018.74 1019.15 1019.44 1019.74 1019.89 1020.02 1020.27 1020.35 1020.30
1021.36 1021.96 1021.98 1021.60 1020.97 1020.71 1020.72 1020.16 1020.11 1019.69 1019.72 1019.77 1019.32 1018.59 1018.05 1017.53 1016.65 1015.89 1015.43 1015.24 1015.31 1015.31 1015.29 1015.17 1015.24 1015.16 1015.47 1015.80 1016.04 1016.19 1016.34 1016.28 1016.51 1016.77 1016.74 1017.30 1017.43 1017.56 1017.61 1017.55 1018.05 1018.46 1018.82 1018.97 1019.24 1019.35 1019.40 1019.44 1019.42
1021.36 1021.80 1022.03 1021.72 1021.13 1021.06 1020.84 1020.10 1019.98 1019.61 1019.53 1019.42 1019.11 1018.40 1017.60 1016.93 1015.93 1015.54 1015.01 1015.01 1015.09 1015.00 1014.94 1014.78 1014.83 1014.61 1015.13 1015.61 1015.87 1016.12 1015.96 1016.09 1016.19 1016.16 1016.35 1016.38 1016.67 1016.86 1016.92 1017.11 1017.28 1017.84 1018.15 1017.91 1018.12 1018.36 1018.63 1018.78 1018.90
1021.64 1021.93 1021.85 1021.54 1021.32 1021.54 1021.13 1019.30 1019.38 1019.25 1018.66 1018.68 1018.21 1017.56 1016.91 1016.41 1015.98 1015.27 1015.19 1015.65 1015.53 1015.20 1014.70 1014.49 1014.41 1014.47 1014.71 1014.98 1015.18 1015.40 1015.44 1015.50 1015.47 1015.37 1015.45 1015.55 1015.95 1016.31 1016.33 1016.33 1016.42 1017.16 1017.54 1017.60 1017.53 1017.81 1018.02 1017.85 1018.01
1021.62 1021.71 1022.14 1022.37 1022.23 1021.99 1021.52 1018.53 1018.05 1017.95 1018.14 1017.81 1017.40 1017.07 1016.66 1016.38 1015.85 1015.66 1016.20 1016.46 1016.17 1015.87 1015.27 1014.93 1014.82 1014.81 1014.81 1014.90 1015.09 1015.30 1015.42 1015.41 1015.36 1015.17 1015.15 1015.09 1015.28 1015.73 1015.96 1015.55 1015.71 1016.21 1016.51 1016.43 1016.61 1016.92 1017.05 1016.98 1017.11
1021.69 1021.72 1022.17 1022.71 1023.06 1023.02 1022.38 1019.54 1018.26 1017.79 1017.74 1017.55 1017.18 1016.91 1016.49 1016.13 1016.64 1016.97 1017.27 1017.39 1017.41 1017.14 1016.45 1015.91 1015.85 1015.67 1015.50 1015.26 1015.34 1015.44 1015.49 1015.48 1015.16 1015.13 1015.00 1014.83 1014.70 1014.81 1015.00 1014.93 1014.93 1015.21 1015.41 1015.31 1015.13 1015.73 1015.82 1016.16 1016.13
1021.45 1021.52 1022.14 1022.70 1023.14 1023.44 1022.95 1022.58 1017.63 1017.59 1018.00 1017.38 1016.93 1017.09 1017.38 1017.32 1017.28 1017.79 1018.11 1018.32 1018.44 1018.10 1017.78 1017.13 1016.73 1016.65 1016.63 1016.34 1016.22 1016.10 1016.14 1015.87 1015.38 1015.19 1015.05 1014.84 1014.63 1014.49 1014.06 1014.20 1014.18 1014.42 1014.57 1014.45 1014.29 1014.66 1014.64 1014.74 1014.74
1021.32 1021.94 1022.55 1023.00 1023.40 1022.89 1022.46 1022.31 1016.75 1017.65 1017.27 1017.42 1017.05 1017.94 1018.42 1018.46 1018.86 1019.08 1019.05 1019.13 1019.35 1019.07 1018.72 1018.38 1018.07 1018.02 1017.82 1017.74 1017.46 1017.22 1017.06 1016.66 1016.27 1016.08 1015.68 1015.40 1014.80 1014.49 1013.86 1013.71 1013.61 1013.50 1013.66 1013.58 1013.60 1013.62 1013.54 1013.59 1013.52
1021.42 1022.18 1022.78 1022.97 1022.84 1022.25 1021.36 1021.61 1017.68 1017.31 1017.02 1017.45 1017.78 1018.82 1019.46 1019.98 1019.99 1020.23 1020.15 1020.30 1020.37 1020.07 1019.98 1019.49 1019.23 1019.19 1019.11 1018.86 1018.74 1018.50 1018.15 1017.66 1017.31 1017.05 1016.68 1016.14 1015.54 1014.94 1014.49 1013.96 1013.53 1013.03 1012.94 1012.74 1012.59 1012.58 1012.55 1012.52 1012.51
1021.05 1021.66 1021.88 1022.07 1022.68 1022.33 1021.98 1020.31 1017.77 1016.98 1016.92 1017.46 1017.94 1019.23 1020.06 1020.79 1021.19 1021.20 1021.30 1021.43 1021.47 1021.38 1021.14 1020.82 1020.59 1020.52 1020.24 1019.89 1019.63 1019.42 1019.05 1018.70 1018.25 1017.98 1017.57 1016.89 1016.33 1015.78 1014.94 1014.27 1013.65 1013.09 1012.48 1012.08 1011.88 1011.66 1011.49 1011.54 1011.48
1020.95 1020.69 1021.14 1021.65 1022.27 1022.67 1021.13 1019.34 1017.66 1017.01 1017.31 1018.15 1019.05 1019.76 1020.87 1021.67 1022.11 1022.23 1022.24 1022.32 1022.35 1022.27 1022.29 1022.12 1021.84 1021.44 1021.01 1020.80 1020.45 1020.10 1019.76 1019.38 1019.07 1018.66 1018.23 1017.79 1017.10 1016.39 1015.70 1015.03 1014.10 1013.20 1012.31 1011.76 1011.40 1010.92 1010.59 1010.49 1010.31
1019.60 1019.98 1020.99 1021.52 1022.15 1021.99 1020.52 1019.71 1018.29 1017.54 1018.09 1019.17 1020.12 1020.82 1021.54 1022.10 1022.58 1022.87 1022.89 1022.99 1022.96 1023.08 1023.11 1022.94 1022.79 1022.58 1022.13 1021.74 1021.31 1020.91 1020.65 1020.10 1019.75 1019.26 1018.79 1018.48 1017.97 1017.20 1016.37 1015.45 1014.49 1013.56 1012.59 1011.81 1010.95 1010.34 1009.84 1009.55 1009.28
1019.46 1019.51 1019.73 1020.19 1020.70 1020.66 1020.47 1018.64 1017.13 1017.25 1017.77 1019.15 1020.38 1021.44 1022.10 1022.63 1022.79 1022.90 1023.27 1023.47 1023.70 1023.71 1023.61 1023.53 1023.44 1023.16 1022.83 1022.40 1022.03 1021.63 1021.09 1020.76 1020.29 1019.85 1019.33 1018.82 1018.38 1017.87 1017.07 1016.02 1015.12 1014.22 1013.23 1012.05 1011.06 1010.12 1009.38 1009.08 1008.65
1018.22 1018.02 1018.57 1018.91 1019.85 1019.98 1019.32 1017.23 1016.80 1017.13 1017.83 1018.95 1020.57 1021.85 1022.57 1022.99 1023.65 1023.82 1023.94 1023.60 1023.95 1024.18 1023.96 1023.93 1024.07 1023.88 1023.59 1023.04 1022.40 1022.03 1021.76 1021.44 1021.09 1020.45 1019.78 1019.21 1018.42 1018.00 1017.47 1016.48 1015.47 1014.63 1013.90 1012.87 1011.78 1010.71 1009.68 1008.68 1008.22
Wind_Speed
10 10 2 6 7 6 1 1 1 1 1 1 1 3 4 3 3 3 4 4 3 6 5 7 9 10 10 10 9 8 8 8 9 8 7 10 9 8 8 8 8 11 9 10 9 9 9 6 8
7 6 5 3 7 4 4 3 0 2 1 3 2 2 4 1 1 2 2 3 4 6 4 4 10 10 11 10 10 9 8 7 7 6 6 14 11 11 8 7 9 9 9 9 8 8 7 7 8
5 4 5 6 4 3 3 2 1 2 1 3 2 4 2 3 1 3 3 8 6 5 4 4 8 10 11 9 10 10 8 6 6 6 6 11 10 10 9 8 8 7 8 7 8 7 5 6 8
6 6 5 7 3 1 3 3 2 4 3 2 1 3 0 1 2 3 6 8 7 6 5 4 10 10 10 9 10 10 10 9 7 6 4 9 9 11 11 8 7 7 5 7 7 6 5 5 6
5 4 5 5 2 3 3 2 2 2 2 3 3 3 1 2 4 5 7 7 7 6 5 6 8 8 9 10 10 10 10 10 8 6 6 8 9 9 12 11 7 7 7 7 6 5 4 4 4
5 3 5 2 3 4 4 4 1 3 3 2 4 2 3 3 1 4 6 6 5 6 5 5 8 10 7 8 9 9 9 9 10 8 6 5 9 7 9 9 9 8 7 6 5 4 3 3 3
6 4 4 3 1 2 3 6 3 3 4 3 2 1 4 4 2 5 5 4 4 4 5 5 5 6 10 7 7 8 9 8 8 10 7 4 5 7 8 10 9 7 7 6 5 3 2 1 2
5 5 2 0 1 1 5 4 1 4 1 5 0 2 4 2 5 5 3 3 3 3 4 5 5 6 5 5 7 6 6 8 8 7 8 7 3 4 3 5 9 8 8 8 7 4 3 2 2
3 5 2 3 4 2 4 4 3 3 3 3 2 1 4 7 5 4 2 2 3 3 5 4 4 4 5 5 6 7 6 6 7 6 7 7 4 3 1 3 4 6 7 4 10 8 5 4 3
5 4 7 3 1 1 2 4 4 4 6 3 2 1 4 2 2 5 5 7 9 10 6 5 5 6 5 5 5 5 5 4 4 4 5 3 4 5 5 6 6 6 7 10 6 6 6 4 2
1 5 4 1 2 2 4 5 1 2 3 4 3 5 2 2 5 7 7 7 10 6 4 7 6 6 6 5 4 4 3 3 3 5 5 4 3 3 3 2 2 3 4 3 5 3 2 4 3
3 2 2 2 2 2 3 3 4 5 7 5 5 4 3 6 8 9 9 8 5 7 9 7 8 7 7 4 5 6 5 4 3 4 5 3 3 4 3 3 4 3 3 4 4 3 4 5 5
2 2 2 2 7 5 3 5 6 6 9 8 8 5 7 7 9 8 9 7 6 9 8 9 9 9 8 7 5 5 7 6 7 5 5 4 4 4 3 4 3 4 3 3 4 4 4 5 5
1 2 5 5 5 4 4 4 5 3 3 7 7 11 8 8 9 7 8 12 9 9 11 8 10 10 8 8 8 6 6 7 7 6 8 9 6 4 4 4 4 4 4 4 4 4 4 5 4
2 4 6 6 3 4 4 4 8 9 4 8 9 9 10 9 6 10 9 9 11 11 8 9 9 9 10 10 9 7 6 6 7 7 9 10 9 7 6 5 4 5 4 5 4 4 3 4 4
1 3 1 5 4 4 6 7 9 6 5 10 12 9 8 12 8 8 9 9 6 7 8 8 8 10 12 11 8 8 7 8 7 7 7 10 10 10 8 7 7 6 4 5 5 5 5 6 5
2 3 3 6 2 4 4 3 5 6 5 9 11 10 8 9 11 9 9 8 8 9 10 10 8 10 12 10 8 8 7 8 7 7 7 9 10 10 9 8 8 7 7 6 6 6 6 6 6
7 5 4 5 3 2 8 13 8 9 6 9 10 13 10 11 14 11 9 8 7 7 8 10 7 10 7 5 5 4 4 6 6 7 7 8 8 11 10 9 9 7 7 7 6 9 6 7 8
2 3 4 4 4 3 8 14 13 10 6 9 10 11 12 11 11 9 10 6 6 8 7 7 7 8 5 3 3 3 6 4 4 6 8 9 10 10 10 7 7 7 10 11 11 9 10 8 4
6 10 12 3 4 4 9 21 14 9 13 12 15 17 16 10 10 15 6 8 7 7 7 6 7 5 5 3 2 3 2 4 4 6 9 10 9 10 9 9 8 8 8 10 10 10 5 7 7
7 10 4 8 5 5 8 19 12 4 4 6 10 10 11 13 15 11 9 7 8 10 9 7 5 3 3 5 2 1 1 1 1 4 5 6 8 10 9 9 8 10 9 10 10 10 13 10 5
7 6 5 3 1 7 3 13 6 6 8 9 11 10 15 13 6 6 8 9 9 10 9 12 12 12 10 8 1 3 3 3 4 3 3 4 7 10 11 11 11 12 10 11 11 9 12 9 11
2 6 7 5 4 2 4 5 4 6 6 12 10 8 8 8 4 8 9 10 8 10 10 9 12 14 13 12 11 7 6 5 4 4 6 7 5 8 10 11 12 12 10 12 12 11 11 11 11
6 4 3 2 3 9 9 8 14 5 5 4 6 8 7 8 9 11 10 10 11 11 12 12 13 14 14 13 12 11 9 8 7 8 6 6 6 5 7 11 11 11 11 12 12 13 15 12 13
5 8 4 5 6 6 7 8 18 12 16 7 6 7 8 7 10 10 12 11 12 14 13 12 14 16 15 14 14 13 11 9 7 7 6 8 7 7 9 10 9 9 11 12 12 12 12 13 13
12 7 5 7 5 3 3 8 8 5 7 2 6 10 9 9 8 10 10 10 11 12 13 13 13 13 14 13 13 12 12 8 7 9 8 7 7 8 12 12 12 12 12 12 12 10 11 12 12
6 12 6 5 4 1 6 10 11 10 3 5 8 11 9 8 8 9 9 9 10 11 12 12 12 11 13 12 11 11 11 11 10 11 10 9 10 11 12 14 13 13 13 12 12 10 12 12 12
9 7 3 4 4 6 5 6 9 6 2 5 7 7 8 7 7 6 7 8 8 8 8 10 11 12 11 11 10 10 11 10 10 9 11 12 12 13 13 14 14 15 14 13 12 11 12 13 11
7 8 4 4 4 4 3 7 7 7 6 11 8 7 7 6 5 5 6 7 8 7 8 9 11 12 12 11 11 10 10 11 10 9 11 11 12 13 13 13 14 14 14 14 15 13 13 14 14
10 13 11 6 6 5 2 11 2 6 5 12 11 7 5 5 4 4 5 6 7 8 10 10 11 12 12 11 11 11 11 12 11 11 12 12 13 13 14 13 14 13 13 14 14 15 15 13 13
Wind_Direction
319 317 69 43 56 66 33 303 317 344 335 336 4 98 117 119 148 225 324 186 133 136 160 161 150 148 141 132 125 115 122 135 134 141 147 140 127 117 106 109 101 114 102 106 106 103 85 41 23
320 337 44 76 80 65 286 270 337 338 276 127 107 89 44 0 204 294 88 182 131 134 143 156 148 147 148 137 128 123 129 144 152 159 144 148 137 129 112 116 109 102 111 99 97 93 83 45 17
351 35 71 83 101 135 182 233 223 304 8 347 12 66 111 314 256 211 233 146 130 130 134 159 150 152 155 150 141 137 141 152 160 178 191 131 137 135 131 117 121 118 122 110 106 92 79 49 23
7 9 39 76 66 0 314 346 329 358 11 54 10 60 285 261 290 198 138 135 131 143 143 170 161 161 164 160 156 154 157 159 166 174 181 166 151 163 146 145 125 141 136 113 108 105 86 60 37
27 48 51 76 351 302 328 29 107 337 334 343 357 328 295 14 341 137 145 143 148 157 157 163 161 167 173 170 170 167 167 164 171 177 202 162 143 151 157 153 152 149 130 121 118 104 91 71 54
34 79 61 94 323 310 295 11 326 16 6 4 36 337 278 334 150 171 150 155 161 163 164 170 170 169 185 188 181 179 181 175 171 181 215 234 151 171 169 160 154 146 146 143 143 119 91 63 48
96 65 154 158 275 348 331 329 59 359 4 13 150 334 283 323 130 162 162 147 161 168 167 174 182 187 176 192 204 193 191 190 180 180 195 255 340 191 176 164 173 179 169 174 169 153 141 96 35
97 91 93 300 214 207 355 360 15 61 308 307 137 337 326 309 143 134 131 156 177 191 196 198 192 182 189 184 193 224 213 196 195 187 183 202 226 330 188 190 197 195 198 199 191 191 219 265 313
119 63 151 212 165 269 344 37 355 297 351 358 29 20 304 312 119 115 139 206 201 224 217 204 210 209 200 193 197 198 233 228 210 207 200 198 176 208 221 259 241 219 195 185 187 189 228 252 310
80 108 210 212 236 253 320 36 323 23 353 325 1 190 355 63 181 184 197 215 219 222 219 208 204 208 206 211 195 206 184 217 234 224 216 215 213 190 196 209 234 241 236 225 220 196 225 257 231
96 178 195 252 247 300 334 342 212 21 332 234 291 315 356 242 243 238 240 223 218 220 211 207 209 206 196 209 196 206 198 177 202 226 221 222 227 234 213 227 250 213 241 217 233 226 223 234 232
331 295 160 301 317 336 301 330 306 185 229 260 267 279 258 229 235 234 243 241 233 221 219 206 210 208 211 201 194 213 211 198 191 201 215 205 218 233 232 225 219 227 231 220 207 215 235 244 247
185 273 320 313 287 275 315 248 242 251 255 280 300 295 264 269 251 246 246 263 239 239 230 215 207 210 212 209 207 200 212 210 210 194 196 194 210 216 218 226 220 223 223 224 219 222 232 239 243
304 311 308 302 287 271 253 264 134 278 263 287 303 288 281 262 265 270 233 247 240 239 234 216 216 212 207 210 207 208 207 215 213 210 207 192 199 205 213 221 222 222 205 215 222 226 232 244 242
355 340 338 276 270 267 176 276 235 259 299 291 283 278 294 285 284 255 252 240 232 241 248 221 213 205 205 210 208 209 208 213 215 215 214 206 196 196 204 216 222 226 209 211 212 233 243 256 253
51 48 226 299 324 272 166 262 263 302 358 305 302 290 286 283 281 281 262 246 255 259 243 236 217 207 209 213 204 207 206 200 214 228 213 215 212 204 197 212 225 219 211 214 210 221 236 242 240
255 237 205 306 263 281 195 239 264 324 356 301 299 293 289 289 294 278 261 252 258 234 241 242 218 220 215 212 208 209 206 210 220 205 216 210 207 209 214 215 223 201 210 209 215 219 217 231 237
223 215 244 220 257 8 293 275 270 285 314 277 284 290 285 282 272 273 292 253 258 265 246 243 226 229 210 204 203 206 209 216 209 220 213 216 214 211 211 215 224 203 214 219 210 225 208 226 233
86 151 237 256 273 338 266 281 285 282 277 289 292 280 277 268 272 281 275 323 294 276 268 237 216 221 172 165 180 224 228 213 211 217 221 209 216 217 214 230 221 210 226 227 216 221 228 235 208
231 249 264 277 289 330 297 284 289 263 263 248 256 267 268 279 283 282 323 5 335 303 304 278 237 222 199 184 201 190 179 214 208 209 223 217 219 220 221 222 229 218 232 240 226 217 223 233 175
212 239 254 254 330 299 291 284 254 268 234 263 257 258 272 260 269 297 7 23 12 10 359 356 341 304 234 217 170 166 45 321 234 235 237 224 210 230 237 224 220 235 226 237 228 223 223 242 215
238 193 188 197 7 277 53 292 240 206 271 277 269 267 267 276 340 352 50 34 17 3 12 41 40 38 26 16 273 215 221 238 258 264 251 253 213 230 231 230 234 234 228 228 227 226 229 229 243
230 160 184 186 206 349 205 262 317 57 299 272 278 274 315 339 59 82 59 42 18 12 15 28 44 39 28 33 33 30 20 351 334 321 303 285 261 237 231 231 240 232 230 236 227 225 216 220 223
150 111 79 53 152 248 186 178 286 169 211 274 275 39 54 61 60 53 52 48 34 26 24 27 34 33 25 22 24 31 24 6 9 359 351 333 319 288 253 248 241 238 236 236 236 234 231 224 232
151 129 221 218 198 231 193 199 253 284 277 229 317 89 70 43 62 53 46 41 34 30 24 27 29 30 21 23 19 15 12 9 5 358 346 336 334 333 321 314 272 254 244 239 237 234 232 230 230
195 184 198 202 196 271 116 240 247 244 275 329 92 115 95 71 56 55 45 42 36 31 27 27 30 26 20 18 15 13 11 8 6 356 347 344 335 331 333 327 320 303 266 254 251 245 239 236 235
176 217 203 341 98 304 227 277 293 274 32 77 106 105 88 71 56 53 46 43 36 31 26 23 20 24 22 13 9 11 7 6 3 357 356 347 340 334 333 326 322 320 314 280 259 252 249 239 237
189 159 124 183 218 220 260 259 233 268 174 109 114 106 95 89 73 56 53 44 41 32 26 28 23 17 14 8 8 5 359 353 356 354 356 346 336 333 331 330 328 322 317 309 289 270 265 260 251
172 210 203 142 188 186 244 252 211 223 172 160 149 124 119 107 109 98 74 58 43 37 31 30 20 16 11 6 358 358 1 354 349 350 348 342 333 333 329 328 325 323 322 324 318 294 280 265 260
215 206 188 187 172 228 216 258 308 251 163 142 136 131 119 100 72 51 59 81 47 32 25 31 14 9 5 357 359 358 357 355 345 344 343 337 335 331 325 326 327 325 322 322 318 319 318 291 278